Cross City, FL

4:02 AM EDT on July 28, 2017 (GMT -0400)
Cross City

Weather History for KCTY - May, 2013

Change the Weather History Date:

Monday, May 20, 2013

  Actual Average Record
Temperature  
Mean Temperature 80 °F 76 °F  
Max Temperature 94 °F 89 °F 95 °F (2017)
Min Temperature 65 °F 63 °F 46 °F (2007)
Degree Days  
Heating Degree Days 0 0  
Month to date heating degree days 9 0  
Since 1 July heating degree days 1133 1303  
Cooling Degree Days 15 11  
Month to date cooling degree days 116 164  
Year to date cooling degree days 401 346  
Growing Degree Days 28 (Base 50)    
Moisture  
Dew Point 65 °F    
Average Humidity 72    
Maximum Humidity 93    
Minimum Humidity 38    
Precipitation  
Precipitation 0.00 in 0.08 in 1.09 in (2004)
Month to date precipitation 2.30 1.41  
Year to date precipitation 9.84 15.89  
Sea Level Pressure  
Sea Level Pressure 30.04 in    
Wind  
Wind Speed 3 mph (SSW)    
Max Wind Speed 14 mph    
Max Gust Speed 22 mph    
T = Trace of Precipitation, MM = Missing Value Source: NWS Daily Summary

Daily Weather History Graph

Daily Weather History Graph

Search for Another Location

Airport or City:

Trip Planner

Search our weather history database for the weather conditions in past years. The results will help you decide how hot, cold, wet, or windy it might be!

Date:

Astronomy

May. 20, 2013 Rise Set
Actual Time 6:36 AM EDT 8:21 PM EDT
Civil Twilight 6:10 AM EDT 8:47 PM EDT
Nautical Twilight 5:38 AM EDT 9:19 PM EDT
Astronomical Twilight 5:05 AM EDT 9:53 PM EDT
Moon 3:47 PM EDT (5/20) 3:08 AM EDT (5/20)
Length of Visible Light 14h 37m
Length of Day
13h 44m
Waxing Gibbous, 75% of the Moon is Illuminated
May 20
Waxing Gibbous
May 25
Full
May 31
Last Quarter
Jun 8
New
Jun 16
First Quarter

Hourly Weather History & Observations

Time (EDT) Temp. Heat Index Dew Point Humidity Pressure Visibility Wind Dir Wind Speed Gust Speed Precip Events Conditions
12:53 AM 70.0 °F - 66.0 °F 87% 30.07 in - SSE 3.5 mph - N/A   Unknown
1:53 AM 70.0 °F - 64.9 °F 84% 30.05 in - SW 3.5 mph - N/A   Unknown
2:53 AM 69.1 °F - 64.9 °F 87% 30.03 in - Calm Calm - N/A   Unknown
3:53 AM 66.0 °F - 64.0 °F 93% 30.01 in - Calm Calm - N/A   Unknown
4:53 AM 66.0 °F - 64.0 °F 93% 30.03 in - Calm Calm - N/A   Unknown
5:53 AM 66.0 °F - 64.0 °F 93% 30.02 in - Calm Calm - N/A   Unknown
6:53 AM 66.9 °F - 64.0 °F 90% 30.04 in - Calm Calm - N/A   Unknown
7:53 AM 70.0 °F - 66.9 °F 90% 30.05 in - Calm Calm - N/A   Unknown
8:53 AM 73.0 °F - 68.0 °F 84% 30.07 in - Calm Calm - N/A   Unknown
9:53 AM 78.1 °F - 70.0 °F 76% 30.08 in - Calm Calm - N/A   Unknown
10:53 AM 82.9 °F 86.5 °F 69.1 °F 63% 30.09 in - Variable 3.5 mph - N/A   Unknown
11:53 AM 86.0 °F 88.2 °F 66.0 °F 51% 30.09 in - Variable 4.6 mph - N/A   Unknown
12:53 PM 88.0 °F 89.6 °F 64.9 °F 46% 30.07 in - Variable 5.8 mph - N/A   Unknown
1:53 PM 89.1 °F 90.0 °F 63.0 °F 42% 30.05 in - Calm Calm - N/A   Unknown
2:53 PM 91.0 °F 91.5 °F 62.1 °F 38% 30.01 in - Calm Calm - N/A   Unknown
3:53 PM 93.9 °F 96.1 °F 64.9 °F 38% 30.00 in - West 9.2 mph - N/A   Unknown
4:53 PM 91.9 °F 93.3 °F 64.0 °F 39% 29.98 in - WNW 8.1 mph - N/A   Unknown
5:53 PM 89.1 °F 90.0 °F 63.0 °F 42% 29.98 in - West 9.2 mph - N/A   Unknown
6:53 PM 78.1 °F - 64.9 °F 64% 30.01 in - SE 10.4 mph 19.6 mph N/A   Unknown
7:53 PM 75.0 °F - 64.0 °F 69% 30.05 in - ESE 9.2 mph 19.6 mph N/A   Unknown
8:53 PM 73.0 °F - 64.9 °F 76% 30.06 in - ESE 6.9 mph - N/A   Unknown
9:53 PM 71.1 °F - 64.9 °F 81% 30.05 in - Calm Calm - N/A   Unknown
10:53 PM 68.0 °F - 64.9 °F 90% 30.05 in - Calm Calm - N/A   Unknown
11:53 PM 66.9 °F - 64.9 °F 93% 30.04 in - Calm Calm - N/A   Unknown